Wind_Speed
40 38 34 33 32 30 28 25 23 21 20 20 20 19 18 16 14 13 14 16 20 23 25 24 22 20 18 17 17 17 16 14 13 11 10 9 9 9 9 7 4 4 7 10 13 14 16 16 16 15 15 14 13 13 12 11 10 9 9 8 8 8 8 8 9 10 12 12 13 14 13 12 11 9 8 7 6 4 3 1 0 1 1 4 5
40 37 34 33 32 29 26 23 22 21 21 22 20 19 18 16 15 15 16 19 22 24 24 22 20 19 18 17 16 16 14 12 11 11 10 10 10 9 8 6 4 7 10 13 14 14 15 15 15 15 14 14 13 12 12 12 11 10 9 9 9 9 9 9 9 10 11 11 12 12 10 9 8 8 9 8 6 4 3 1 1 1 2 4 5
41 38 35 33 32 28 25 23 21 22 23 22 20 19 18 18 17 18 19 21 23 23 22 20 19 17 17 16 15 14 13 12 12 11 12 12 11 9 6 3 6 10 12 14 13 13 13 15 15 14 13 13 13 12 13 12 11 10 9 10 10 10 9 9 9 9 10 9 9 8 7 8 7 7 9 8 5 2 2 2 2 3 4 4 5
42 39 36 35 32 28 25 22 21 22 22 21 20 20 20 19 19 20 21 23 23 22 21 19 17 16 16 15 14 14 13 13 13 13 13 12 9 6 2 4 10 13 14 13 12 12 12 13 13 12 12 12 13 13 14 13 12 10 11 11 10 10 10 10 10 9 9 9 9 9 8 8 8 7 8 7 4 1 2 3 3 5 4 4 6
42 39 37 36 32 28 24 22 22 22 21 20 21 21 20 20 20 21 22 22 21 20 19 17 16 15 15 14 14 14 14 14 14 16 15 12 8 5 6 10 14 15 14 13 12 11 11 12 12 12 12 14 15 15 15 14 13 12 13 12 12 12 12 12 11 10 10 9 9 8 7 7 7 6 7 6 3 1 3 3 4 6 6 6 8
42 40 37 36 32 28 24 22 23 22 21 21 22 21 20 20 21 21 20 20 18 18 17 16 14 14 14 14 13 13 14 15 17 19 18 15 15 13 13 15 16 16 15 13 12 11 11 11 11 12 15 16 17 17 15 14 13 13 13 12 12 12 12 12 11 10 10 9 9 7 6 5 4 4 4 4 2 2 3 4 5 7 7 7 9
42 40 38 36 32 27 23 23 24 22 22 23 22 21 20 20 20 20 19 18 16 15 15 14 13 13 14 13 13 13 15 17 19 19 18 18 19 18 17 17 16 16 14 12 11 10 10 10 11 13 16 17 17 16 14 13 12 12 12 11 10 11 11 10 9 8 8 8 8 7 6 4 3 3 4 3 2 3 5 5 5 5 6 9 11
42 39 38 35 31 26 23 24 24 23 24 23 22 22 21 21 20 20 18 17 15 13 13 13 12 14 15 14 14 15 17 18 19 19 18 18 18 17 16 17 16 15 14 12 11 11 11 11 13 15 17 18 17 15 13 12 11 11 9 9 8 9 8 8 8 6 5 6 5 4 4 3 3 3 4 5 4 4 6 6 6 6 9 11 11
41 39 37 34 30 25 23 24 24 24 24 23 23 23 23 23 22 20 18 16 14 13 12 12 13 15 15 15 16 16 17 17 18 19 18 18 18 17 16 15 15 14 13 12 13 14 14 14 16 17 18 17 16 14 12 11 11 10 9 7 7 7 6 6 5 5 4 3 2 1 1 2 3 3 3 4 5 6 7 7 7 9 11 11 10
41 39 37 34 29 24 23 24 24 25 24 24 25 25 25 24 23 21 18 16 15 14 14 14 15 16 15 16 16 16 16 16 15 16 18 18 17 16 15 14 14 13 12 11 13 14 14 15 16 17 17 15 13 11 10 10 10 10 9 7 7 6 6 5 3 4 3 1 3 1 1 2 3 2 3 4 4 5 5 7 8 10 10 10 10
40 38 37 33 27 23 23 24 25 24 24 26 26 26 26 25 23 21 19 18 17 17 17 16 17 16 15 15 15 16 16 15 14 13 14 15 15 14 13 13 12 12 11 10 11 12 13 14 14 14 14 13 10 8 8 9 9 9 8 7 6 6 5 4 3 4 2 2 5 4 2 2 2 3 4 5 5 5 6 7 9 9 10 10 11
40 38 36 32 26 22 22 24 24 23 25 26 26 27 27 25 24 22 21 21 20 20 19 18 17 15 15 14 14 15 15 15 14 13 12 12 12 12 11 11 10 9 9 8 8 9 10 11 12 12 12 10 7 7 7 8 8 8 7 6 6 5 4 3 2 3 4 2 4 5 5 4 3 4 6 6 7 8 8 8 8 9 10 11 12
39 37 36 31 24 21 22 24 23 23 25 26 28 29 28 27 25 24 24 23 23 22 21 20 18 17 17 16 16 15 15 15 15 15 14 12 12 11 11 10 9 7 6 6 6 7 7 7 9 10 10 9 6 5 6 7 7 6 5 5 5 5 4 2 1 2 3 2 3 4 5 5 4 5 7 8 9 10 10 9 9 10 11 11 12
39 36 35 30 23 20 22 23 22 23 25 26 29 30 30 29 27 27 26 25 24 24 24 22 22 22 21 19 18 17 16 15 14 14 14 13 12 10 10 10 10 8 6 5 6 7 6 6 7 9 10 9 7 6 6 7 6 5 4 4 4 4 4 2 1 1 2 2 2 3 4 5 6 6 9 10 11 12 12 10 10 11 12 11 10
38 36 34 28 21 19 21 22 21 22 25 28 30 32 33 32 30 29 28 27 26 25 25 24 25 25 24 22 21 20 19 17 15 14 12 12 11 10 11 11 12 11 10 8 8 7 7 7 8 9 9 9 8 7 7 7 7 5 4 4 4 3 3 2 1 0 1 3 3 4 6 7 8 9 12 12 10 10 10 9 10 11 11 10 9
37 35 33 26 19 18 20 20 19 21 25 29 31 34 37 36 35 32 31 29 28 27 26 26 26 26 25 23 23 22 22 20 19 18 17 17 17 17 17 16 15 15 14 12 11 10 10 10 10 10 10 10 10 9 9 8 8 5 4 3 3 3 3 2 1 1 2 3 5 6 7 9 11 12 13 12 9 7 7 8 9 9 8 7 6
36 35 33 25 17 17 19 19 18 19 24 29 32 35 38 39 39 37 35 33 32 31 30 29 29 28 27 27 26 26 26 26 26 26 27 28 29 28 26 24 21 19 17 16 16 16 15 15 14 13 13 12 11 11 10 8 7 6 5 4 5 5 3 1 0 2 4 6 7 9 10 11 12 11 10 9 7 5 5 5 5 5 4 4 3
35 34 32 23 15 16 17 17 17 18 22 26 30 34 38 40 41 40 39 38 37 37 36 36 35 34 33 33 32 32 32 32 33 33 34 35 36 37 36 34 31 27 24 22 21 20 20 20 20 19 18 17 15 14 12 10 9 8 8 7 7 5 3 2 2 4 5 6 6 6 6 6 6 6 5 4 3 2 2 2 2 2 2 2 1
35 34 31 21 14 14 16 16 16 18 20 23 26 30 35 38 39 40 40 40 40 39 39 39 39 38 37 36 36 35 34 34 34 36 36 37 39 40 40 39 39 37 35 32 28 26 25 25 25 24 23 22 21 19 17 15 13 12 11 9 7 4 3 3 3 4 4 3 2 2 3 4 5 5 4 3 3 2 2 2 2 2 3 5 7
34 34 29 18 12 13 15 15 15 17 18 20 22 25 30 35 38 39 39 39 39 38 38 37 37 37 36 35 34 34 34 33 33 35 36 37 38 38 39 40 41 41 41 40 38 36 33 31 29 28 27 26 24 22 20 17 15 13 11 9 7 6 5 4 4 4 5 6 7 8 10 10 10 10 9 9 8 8 8 8 9 10 12 13 15
33 33 26 15 11 12 14 14 14 15 16 17 19 22 25 30 33 35 35 35 35 36 36 35 34 33 33 32 32 32 32 31 32 33 35 36 36 37 38 38 39 40 41 41 41 41 39 38 36 34 32 31 29 27 24 22 19 17 15 14 14 13 13 12 12 13 13 14 15 15 16 16 16 16 15 15 14 14 15 15 16 17 18 18 19
33 32 23 11 9 10 12 13 13 14 14 15 16 19 22 25 27 28 29 30 32 33 33 33 32 31 30 30 30 30 30 31 31 32 33 35 36 37 37 37 38 39 40 40 40 40 40 39 38 37 36 34 33 31 29 27 25 23 22 21 20 19 18 17 17 17 17 18 18 18 18 18 18 18 18 18 18 18 18 19 19 19 19 19 19
33 30 18 8 8 9 12 12 13 13 12 12 12 15 19 23 25 25 25 26 29 29 31 32 31 30 30 29 30 31 31 31 32 32 33 35 36 37 37 37 37 37 38 39 39 39 39 38 38 37 36 34 33 32 30 28 27 25 23 22 21 20 19 18 18 17 17 17 17 17 17 17 17 17 18 18 18 18 19 19 19 19 19 18 18
33 27 13 6 6 8 11 11 12 12 11 9 9 11 15 17 19 22 23 25 26 26 28 29 29 29 30 30 31 32 32 33 34 34 34 35 35 35 36 35 35 36 36 37 37 37 37 37 37 36 35 33 32 31 30 28 27 25 23 22 21 20 19 18 18 18 17 17 16 16 15 15 15 15 16 16 17 17 17 17 17 17 16 16 15
32 23 9 5 5 8 11 11 12 12 10 8 7 10 12 13 14 17 20 22 23 23 25 26 26 28 29 29 30 32 33 33 34 34 34 33 33 34 34 35 35 35 35 35 36 36 36 36 36 35 34 33 31 30 28 27 25 23 21 20 20 19 18 17 17 17 16 16 15 15 14 14 14 14 14 14 14 15 15 15 14 14 14 13 13
31 19 5 4 5 9 11 11 11 11 10 8 9 11 12 12 13 15 16 18 20 21 23 24 24 26 27 28 29 31 32 32 32 32 32 32 32 33 34 35 35 34 35 35 36 35 35 35 35 34 34 32 31 29 28 27 26 23 22 21 20 18 18 17 17 16 15 15 14 14 13 13 13 12 12 12 11 11 11 11 11 11 11 11 10
28 14 3 4 5 10 11 11 10 10 10 10 11 13 13 14 14 15 15 15 17 19 22 24 24 25 25 26 27 30 30 30 30 30 30 31 32 32 33 34 34 34 34 35 35 35 34 34 33 33 33 33 32 30 30 29 28 26 24 23 21 20 20 19 18 17 16 15 15 14 13 12 11 10 10 9 9 8 8 8 8 8 8 7 7
24 9 3 3 5 10 12 10 10 9 11 13 14 15 15 15 16 16 15 15 16 17 21 23 23 23 24 25 26 28 28 28 29 29 30 31 31 32 32 33 33 33 33 33 33 33 33 33 33 33 33 33 32 32 32 31 30 28 26 24 23 23 22 21 19 18 17 16 15 14 12 11 11 10 9 8 7 7 6 6 5 5 4 4 4
19 4 3 4 6 11 12 10 10 11 14 16 17 17 17 18 18 18 17 16 16 16 19 20 20 21 24 24 24 25 26 26 27 28 29 30 31 31 31 32 32 32 32 32 32 32 32 32 33 33 33 33 33 33 33 32 31 29 27 25 25 24 23 22 21 20 18 17 16 15 13 12 11 9 8 7 6 6 5 4 4 3 3 3 3
13 2 3 4 7 11 12 11 11 15 18 20 20 21 21 21 21 20 20 19 18 17 17 17 17 21 23 22 22 23 24 25 26 27 28 29 30 30 30 30 30 31 31 31 31 32 32 32 33 33 33 33 34 34 34 33 32 30 28 27 26 25 24 23 23 22 21 20 19 18 16 15 14 12 10 9 7 6 5 4 3 2 2 2 2
9 1 3 5 8 12 13 12 13 18 21 22 23 23 23 22 22 21 21 20 20 19 18 17 18 21 22 21 21 22 22 24 25 26 27 28 29 29 29 29 29 29 30 30 31 31 31 32 32 33 33 34 34 35 35 34 32 30 28 27 26 25 24 24 24 23 22 22 21 20 19 18 17 16 14 13 11 9 8 6 5 4 3 3 3
5 1 2 6 9 13 13 13 15 18 22 23 24 24 23 23 22 21 20 20 21 21 21 20 21 21 20 20 21 21 21 23 24 25 26 27 27 27 27 28 28 29 29 30 30 30 31 31 32 32 33 33 33 34 35 34 33 30 28 26 26 25 24 24 23 23 22 22 21 21 20 19 18 17 16 15 14 12 11 10 9 8 7 5 4
3 0 2 7 10 13 13 13 14 18 21 22 23 23 24 23 22 21 20 20 20 20 21 22 22 21 20 19 19 20 21 22 23 24 25 25 26 26 26 27 27 28 28 29 29 29 30 30 31 31 32 32 32 33 34 34 33 30 28 26 26 25 24 24 23 23 22 22 22 22 21 20 19 18 17 16 14 13 12 12 11 10 9 7 6
2 1 3 8 11 14 14 13 14 17 20 21 21 22 24 24 24 23 22 20 20 20 20 21 22 21 20 19 19 20 20 21 22 23 24 24 24 25 26 26 26 27 27 28 28 28 29 29 30 30 31 31 31 32 33 34 33 30 27 26 26 25 25 24 24 24 24 24 24 24 23 23 22 21 19 17 16 14 13 12 11 10 9 8 7
2 1 4 8 11 14 14 13 13 16 18 20 20 21 22 23 24 23 22 21 20 20 20 21 20 19 19 19 20 20 20 21 22 22 23 23 23 24 25 25 26 26 26 26 27 28 28 28 29 30 30 30 30 31 32 33 33 31 28 27 26 26 26 25 25 25 26 26 27 27 27 27 26 25 23 21 19 17 16 14 13 11 10 9 8
2 2 4 8 12 14 15 14 13 15 17 19 19 20 20 21 22 22 21 20 19 20 20 20 19 18 18 18 19 20 20 20 21 22 22 22 22 23 24 24 25 25 25 25 26 27 28 28 29 29 29 29 30 30 31 32 32 31 28 27 27 27 27 26 26 27 28 29 30 30 31 31 31 30 29 27 25 23 21 19 17 15 13 11 9
3 2 5 9 12 14 15 15 14 15 16 17 18 19 19 20 21 20 19 18 18 19 20 20 19 18 17 18 18 18 19 20 21 21 21 21 21 22 23 24 25 25 25 26 27 27 28 28 28 28 29 29 29 29 29 31 32 32 29 28 28 28 28 27 27 28 30 31 32 32 33 33 34 34 34 33 32 30 27 25 23 21 19 16 14
3 4 6 10 13 15 16 16 15 15 16 16 17 17 17 18 19 19 19 18 18 18 19 19 18 18 17 17 17 17 18 19 20 20 20 20 20 21 22 23 24 25 26 27 27 27 28 28 28 28 28 28 28 28 28 30 32 32 30 29 29 29 29 28 28 29 30 32 33 33 34 34 35 35 36 37 37 36 34 32 29 27 25 23 20
5 5 7 11 15 16 17 18 17 16 16 16 16 15 16 17 18 18 17 17 17 17 17 17 17 17 18 17 16 16 17 18 19 19 19 19 19 20 20 22 23 24 26 27 27 27 28 28 28 27 27 27 27 27 28 29 32 33 31 30 29 30 30 29 29 30 30 32 33 34 34 34 35 35 36 37 38 39 39 37 36 33 31 29 27
6 7 9 12 16 17 17 19 19 18 17 16 16 15 15 16 17 17 16 15 15 15 15 15 17 18 18 17 16 17 18 18 18 18 18 18 18 19 19 20 22 24 25 25 26 27 27 28 28 27 25 25 26 26 27 29 30 32 32 30 29 30 30 30 29 30 31 32 33 34 34 35 36 35 35 36 37 38 39 40 40 38 37 34 32
8 9 10 13 17 19 19 19 20 20 19 17 17 16 15 15 16 16 15 13 13 13 14 15 16 17 17 16 16 17 18 17 17 17 17 17 17 18 18 19 21 22 23 23 25 26 26 27 27 26 25 25 25 26 26 28 30 31 32 31 30 30 30 30 29 30 31 32 33 33 34 35 36 36 36 36 36 36 37 38 40 40 39 38 36
9 10 11 13 17 21 21 20 21 21 20 19 18 17 15 14 15 15 14 13 12 12 13 14 15 16 16 16 16 16 16 17 17 16 16 16 16 17 18 19 20 20 20 21 23 24 24 25 26 26 25 24 25 25 26 27 29 30 31 31 30 30 30 30 29 29 30 31 31 32 33 34 35 36 36 36 36 36 36 36 37 37 38 38 37
10 11 11 13 17 22 23 22 22 22 22 20 19 18 16 14 14 15 14 12 12 12 13 14 15 15 16 16 16 16 16 17 17 16 16 16 15 16 17 17 18 18 19 20 21 22 22 23 25 25 24 24 24 25 26 27 28 29 30 31 31 30 29 29 29 28 28 29 29 30 31 31 32 34 35 35 36 36 35 35 35 35 34 35 34
10 12 12 13 17 22 25 25 23 23 23 21 20 19 17 15 14 14 13 12 11 12 12 14 15 15 16 16 16 16 16 17 16 16 15 15 14 15 15 15 16 17 17 18 19 20 21 22 24 24 23 23 24 24 25 26 27 28 29 30 31 30 29 29 29 29 28 28 28 29 29 29 30 32 33 33 34 35 35 35 34 33 32 31 31
11 13 14 14 17 21 25 27 26 24 23 22 21 19 18 16 14 13 12 11 11 11 12 13 14 15 15 15 16 16 16 15 15 15 14 13 13 13 14 14 15 15 16 16 18 19 19 21 23 23 23 22 23 23 24 25 26 27 28 29 30 30 30 29 28 28 28 28 27 27 27 27 28 31 31 31 33 34 35 34 34 33 32 30 30
13 14 15 14 16 20 24 27 29 27 25 24 22 20 18 16 14 12 11 10 10 10 11 13 14 14 14 14 14 14 14 14 13 13 13 12 12 12 12 13 13 13 14 15 17 18 19 20 21 22 21 21 22 22 23 24 25 26 27 28 29 30 30 29 28 28 28 28 28 27 26 26 27 30 30 31 33 34 34 34 34 34 33 32 31
13 14 15 14 14 18 22 25 28 30 28 26 24 22 19 16 14 11 9 8 8 9 10 12 13 13 14 13 13 13 13 12 12 11 11 10 10 10 10 11 11 12 13 15 16 17 18 19 20 21 20 20 21 22 22 23 23 25 26 27 28 29 29 30 29 28 27 27 27 27 26 25 27 29 30 31 32 33 34 34 34 34 34 34 33
14 14 15 15 14 16 20 24 26 30 31 30 28 25 22 19 16 14 11 8 7 8 9 11 12 13 13 13 12 12 11 11 10 10 9 9 8 8 8 9 10 11 13 14 15 16 17 18 18 19 19 19 20 21 21 22 22 24 26 27 27 28 29 29 30 29 28 27 27 27 26 26 27 29 29 30 31 32 33 34 35 35 35 35 35
14 14 14 14 14 15 19 22 25 27 30 31 31 30 27 24 21 19 15 11 9 8 9 10 11 12 12 11 11 10 10 9 9 8 7 7 6 7 7 8 10 11 12 13 14 16 16 16 17 18 18 18 19 20 21 21 22 24 25 26 27 28 28 29 29 30 29 29 28 27 27 27 27 27 27 28 30 31 33 34 34 35 35 36 36
14 14 14 14 13 14 16 20 24 26 27 28 30 31 30 28 26 23 20 16 12 10 11 11 11 11 11 10 9 8 8 7 7 6 6 5 5 6 6 8 9 10 11 12 14 15 15 15 15 16 16 17 18 19 20 20 21 23 24 25 26 27 28 28 28 29 29 29 29 29 29 28 27 27 27 28 29 30 31 31 32 33 34 35 35
15 15 14 14 14 13 15 18 22 26 26 25 26 27 29 29 28 26 23 20 16 13 13 13 12 12 11 10 9 7 7 6 5 5 4 4 4 5 6 7 8 9 10 11 13 13 13 13 14 14 14 15 16 18 19 19 20 21 23 24 25 27 27 28 28 28 28 28 29 30 30 29 29 28 28 28 27 28 28 29 30 30 32 33 33
Wind_Direction
359 360 0 354 352 351 349 349 349 351 347 343 343 345 347 346 343 335 325 322 323 327 329 333 336 336 335 333 332 335 336 338 338 340 342 341 340 338 337 350 21 86 101 106 107 112 113 113 115 116 118 120 121 123 127 128 130 133 143 148 149 152 156 163 166 168 171 173 177 182 189 192 192 196 191 181 184 192 209 242 248 153 315 329 338
359 360 0 356 354 355 355 353 352 351 347 347 349 351 351 348 343 334 327 326 327 329 332 336 339 338 340 341 344 348 349 351 353 349 342 332 326 325 328 349 65 109 114 114 114 117 117 116 115 115 116 117 118 122 126 129 132 132 135 136 137 142 148 157 159 162 166 169 176 185 190 185 184 179 166 164 173 192 204 226 12 332 312 329 335
359 360 360 357 357 358 358 356 355 351 350 352 353 353 351 348 342 335 332 330 331 333 335 340 341 343 346 350 359 2 4 7 2 349 338 329 322 318 322 13 108 120 122 121 121 122 120 118 115 113 114 115 120 126 130 130 131 127 125 127 131 136 142 154 161 165 164 163 163 167 166 159 166 169 168 172 182 213 245 280 334 333 317 335 336
359 360 359 358 359 360 359 360 357 353 355 356 355 353 351 347 342 338 335 335 336 338 339 343 346 350 355 4 15 15 17 16 8 0 353 346 339 329 339 107 124 127 128 127 125 124 119 117 115 112 111 115 121 127 129 127 127 125 124 126 131 135 141 149 156 157 153 149 142 142 145 146 157 173 182 186 194 256 301 297 322 334 324 334 331
360 360 359 359 0 2 1 3 359 356 359 357 355 354 352 347 343 340 339 340 342 344 346 350 355 359 7 19 25 24 25 22 21 24 22 21 31 53 98 119 125 129 130 130 125 121 115 111 109 108 112 116 120 125 127 125 125 125 126 128 131 133 136 141 143 143 138 134 131 133 141 148 160 179 193 199 212 288 313 301 310 318 310 319 325
1 0 359 359 1 4 3 4 1 0 1 357 357 357 354 349 346 344 344 346 347 351 355 0 4 10 22 31 32 34 33 34 37 38 42 54 69 82 101 117 123 127 129 126 120 115 111 108 106 109 116 119 121 124 125 124 124 125 125 125 126 128 129 132 135 137 135 131 131 135 145 162 179 195 203 212 242 281 290 296 313 317 309 316 322
1 1 359 0 2 5 5 5 3 3 1 358 1 0 357 353 350 348 347 348 351 358 5 10 15 27 38 42 43 45 44 48 48 46 54 69 78 84 97 110 117 120 120 116 108 104 104 108 112 116 121 122 123 123 120 119 122 125 125 122 122 124 125 127 129 132 136 141 147 152 161 177 197 213 215 229 283 295 288 290 303 316 313 316 319
2 1 360 1 3 5 6 6 5 4 3 4 7 5 1 357 354 352 351 352 356 5 15 22 31 46 52 52 53 50 52 57 54 52 62 75 80 83 91 99 104 108 110 107 99 97 101 110 117 122 124 124 124 122 117 115 116 119 123 125 124 126 128 126 124 126 135 147 152 162 183 203 227 244 245 250 276 295 292 285 281 290 298 310 317
2 1 360 1 4 6 7 8 7 6 8 12 12 9 6 3 2 2 3 5 11 23 31 39 53 62 62 60 56 51 56 61 58 57 65 76 81 83 88 93 98 102 106 106 102 102 107 116 121 126 128 129 127 122 118 118 119 120 123 127 127 131 136 131 124 124 130 146 149 137 185 281 265 259 293 285 288 299 298 293 286 285 291 306 315
2 1 360 1 4 6 9 11 9 10 16 19 17 15 13 12 13 15 21 28 37 47 52 59 69 70 69 66 59 55 58 63 64 61 66 75 80 84 88 93 97 102 107 109 107 107 114 123 126 131 134 133 127 120 119 121 122 124 127 132 135 137 143 148 145 140 135 211 242 245 92 318 280 266 318 318 307 304 297 288 281 281 291 305 307
2 1 359 2 5 7 11 13 12 17 25 25 23 22 21 21 23 29 39 48 56 64 67 72 77 74 73 68 62 60 61 65 67 64 67 72 76 79 83 87 90 96 103 106 105 105 114 126 132 138 141 137 125 119 122 121 120 123 130 139 143 141 147 162 175 177 190 233 239 248 244 257 281 294 312 307 292 285 280 280 281 288 301 308 304
2 0 359 2 6 8 13 16 18 27 32 30 31 30 29 31 34 42 51 58 65 70 73 77 80 77 76 72 66 65 67 69 68 67 67 68 69 70 72 75 79 85 93 97 99 102 111 126 136 145 150 149 138 128 128 125 121 124 135 147 148 146 147 157 181 200 217 228 227 244 255 259 278 295 304 301 291 284 281 287 295 301 307 308 304
2 360 359 2 6 9 15 20 25 36 38 36 37 35 36 39 43 50 56 63 69 73 75 77 79 78 80 78 74 72 74 75 70 67 65 65 64 64 67 67 69 73 84 92 94 97 106 121 140 155 162 165 164 153 144 139 131 126 135 146 150 148 144 140 149 199 215 229 231 238 252 266 284 295 304 300 290 283 281 286 297 307 311 309 306
1 359 358 2 6 10 18 24 34 44 44 41 40 41 44 47 50 54 59 65 70 74 76 76 78 78 79 78 76 75 77 76 71 65 60 57 53 55 61 64 66 69 83 97 99 102 108 117 138 158 172 179 183 180 166 156 148 138 132 134 141 144 143 135 123 170 207 228 251 259 267 277 284 290 299 298 283 272 274 284 301 312 313 311 308
0 359 358 2 7 12 22 29 43 52 50 47 46 49 52 54 55 58 63 67 71 75 77 78 78 77 77 76 77 77 77 75 70 63 55 51 50 56 65 71 74 76 83 93 100 105 115 126 137 150 164 172 175 177 171 167 164 157 141 134 132 127 130 136 140 178 234 249 269 280 279 279 278 278 286 295 289 273 274 291 304 310 309 307 304
359 359 358 2 8 15 25 36 51 59 55 54 55 57 60 61 62 64 68 71 75 79 80 81 79 78 78 79 80 78 76 73 70 67 65 66 67 70 72 76 80 83 86 90 93 95 104 117 131 141 149 153 157 161 163 168 171 171 163 141 117 99 102 126 179 249 289 285 286 284 280 276 275 271 274 284 293 287 287 295 301 304 302 301 301
358 358 358 2 8 17 30 43 58 64 61 62 63 64 66 67 67 68 71 74 77 80 82 82 81 82 82 82 81 80 79 77 76 75 75 75 75 75 76 79 82 86 89 92 93 94 97 103 112 121 128 134 139 145 150 156 159 158 145 119 96 85 89 103 245 304 310 304 294 285 278 272 268 264 264 269 279 287 293 297 299 298 294 296 302
358 358 357 1 9 20 36 50 61 68 69 69 69 69 70 70 70 71 73 75 76 79 80 82 83 84 84 84 83 83 83 82 82 80 79 78 78 78 79 80 82 85 89 93 96 98 98 98 101 104 108 113 116 119 121 123 122 116 108 98 88 81 74 43 344 322 319 315 305 294 280 261 248 240 237 243 253 273 295 298 293 292 299 314 358
358 357 356 1 10 21 42 57 64 72 75 75 73 72 73 73 73 74 74 75 75 77 78 80 82 84 85 85 85 85 85 84 83 82 80 79 79 79 79 80 81 82 84 87 90 93 94 94 94 95 97 100 102 103 103 103 101 99 96 92 86 74 50 13 346 334 335 345 359 36 83 113 123 128 129 123 109 92 79 72 67 76 85 93 96
358 357 356 2 11 23 47 62 65 74 79 77 76 77 76 76 77 76 76 74 74 75 76 78 79 81 82 82 83 84 84 84 82 81 80 80 79 79 79 79 80 80 81 82 83 85 87 88 89 90 92 93 95 96 96 96 95 95 94 92 89 81 72 62 58 57 65 78 86 89 91 95 96 95 92 88 85 84 85 89 94 97 99 100 98
358 356 356 4 12 26 53 65 67 76 81 77 78 81 80 79 79 78 77 74 74 75 75 76 76 77 78 78 79 80 82 82 81 80 79 79 79 79 79 79 79 80 81 81 82 83 84 85 86 87 88 89 90 91 92 93 94 94 94 94 93 90 88 86 85 83 83 84 85 88 89 89 89 88 87 86 88 90 94 97 99 100 100 100 99
357 355 355 7 13 31 58 66 69 77 83 79 80 84 83 82 82 81 78 74 74 75 74 74 75 76 76 76 76 78 80 81 82 81 80 79 79 79 80 80 79 80 81 81 81 82 83 83 84 85 85 86 88 89 90 91 91 91 91 91 90 88 87 85 83 81 79 79 81 83 86 88 89 91 92 93 93 95 96 97 98 98 99 100 101
356 355 356 13 14 40 62 67 70 76 86 81 78 86 88 86 84 84 83 77 75 74 72 73 75 77 77 77 76 79 82 83 83 84 83 82 81 81 80 80 80 80 80 81 81 81 81 82 82 82 82 83 84 84 84 83 82 81 81 81 81 80 79 78 76 74 74 75 77 80 83 87 91 94 95 95 95 95 95 95 96 97 100 102 105
356 354 357 22 21 52 66 67 69 73 82 78 76 90 98 93 85 87 89 85 80 76 74 74 76 77 78 79 79 81 83 84 84 85 86 84 84 83 82 82 81 81 81 81 81 80 80 80 80 80 79 79 78 78 78 77 75 73 72 71 71 71 70 70 69 69 70 71 74 77 81 85 88 92 94 95 95 94 94 94 96 99 102 106 108
355 353 360 33 36 65 69 68 68 72 76 74 83 98 105 101 92 93 94 92 88 82 79 77 77 77 76 77 80 82 83 85 86 87 87 86 85 84 84 84 83 83 83 83 83 83 83 82 82 81 80 78 76 76 76 76 75 73 72 71 70 70 70 69 68 67 66 67 69 72 74 76 80 84 89 92 93 94 96 97 100 102 106 109 109
354 354 10 46 56 76 73 70 68 71 73 81 97 103 105 103 100 98 97 96 93 89 85 81 80 79 76 76 81 84 84 84 85 86 86 85 84 85 85 86 85 85 85 85 85 85 85 84 82 81 79 76 74 72 72 72 72 71 71 70 71 72 73 71 70 67 65 64 63 64 64 67 69 73 77 81 87 93 98 104 109 111 114 114 114
354 355 38 63 78 85 79 75 71 73 82 95 101 102 103 102 99 97 98 100 97 93 89 86 85 83 79 79 82 85 85 84 84 84 84 85 85 86 86 86 85 84 84 85 85 86 84 82 80 78 76 72 69 67 65 65 64 63 62 62 63 64 65 64 64 62 60 58 56 57 56 57 59 61 65 68 73 79 86 95 102 110 114 116 117
354 358 83 85 98 93 86 82 79 85 97 102 100 99 100 99 97 95 97 102 103 97 90 89 88 84 83 84 84 85 84 83 83 83 84 86 86 86 85 85 84 84 83 83 84 83 81 79 77 74 72 68 65 61 58 58 58 57 56 55 56 56 57 57 57 56 54 53 51 52 51 50 51 52 54 54 56 57 60 64 66 72 77 86 91
355 8 109 111 115 101 95 92 93 101 105 103 99 97 96 94 94 93 93 98 104 100 93 90 87 86 89 88 86 86 86 84 84 83 84 85 85 85 85 85 85 84 83 82 81 80 78 77 73 70 68 65 61 57 54 52 53 53 52 52 52 53 54 54 54 52 51 49 48 47 45 44 44 44 44 43 44 42 43 44 42 39 34 34 35
357 39 123 134 127 110 105 105 106 108 106 103 100 98 96 94 93 92 91 94 101 102 98 93 90 94 96 91 88 88 87 86 85 84 85 84 84 84 85 85 85 84 82 81 79 77 75 73 70 67 63 61 57 54 51 49 49 50 51 51 51 51 51 50 50 49 48 46 44 42 40 39 37 35 33 30 30 27 25 20 13 4 351 347 354
0 88 138 151 138 120 116 117 115 111 108 105 103 100 98 97 94 92 90 92 99 103 102 100 102 104 101 96 94 91 88 87 85 84 84 84 85 85 86 86 85 83 81 79 77 75 72 69 67 64 61 57 54 52 49 47 47 48 50 50 51 51 50 49 48 47 47 45 44 42 40 38 35 33 30 28 25 22 18 11 2 349 330 315 304
1 119 159 164 148 130 125 127 122 114 110 107 105 103 101 100 97 94 92 93 98 103 103 102 106 109 107 103 99 94 91 89 86 85 85 85 86 86 86 86 85 83 80 78 75 72 70 67 64 61 59 56 53 51 48 46 46 48 49 50 51 51 50 50 49 48 48 47 45 42 40 38 35 32 29 26 23 20 17 14 11 5 356 344 328
352 177 178 176 158 140 134 135 129 118 113 110 107 104 102 102 101 99 97 96 98 103 105 104 107 111 112 108 102 99 96 93 90 89 87 87 87 86 86 86 84 81 78 77 74 70 67 64 62 60 58 55 53 50 48 45 45 47 49 50 50 49 49 49 49 49 48 48 46 43 41 39 35 31 27 24 20 17 14 12 9 6 2 357 351
325 241 190 185 169 148 141 142 136 124 118 114 111 107 105 105 104 103 101 99 100 104 108 108 109 112 112 108 105 103 99 96 94 91 90 88 87 86 86 85 83 80 77 75 72 68 64 62 60 59 57 54 52 50 47 45 44 46 48 49 49 48 48 47 47 48 48 49 48 47 46 43 40 36 31 26 21 18 14 11 7 0 356 352 349
292 247 202 192 177 157 147 148 143 131 122 117 114 112 110 109 107 105 102 101 102 106 112 113 113 113 112 109 107 105 100 98 96 94 92 90 88 87 86 84 81 77 74 72 68 66 63 60 58 57 55 53 52 50 46 44 43 45 48 48 48 48 47 46 47 49 52 54 54 54 52 50 47 44 40 36 32 29 25 22 17 11 5 358 353
258 232 211 198 186 165 153 153 150 138 128 121 117 115 114 114 111 108 106 105 104 108 113 116 116 115 113 111 108 105 102 100 99 96 93 91 90 88 85 83 78 75 71 68 65 63 60 58 56 55 54 52 51 50 47 44 43 46 48 49 48 47 46 46 50 54 58 60 59 57 56 54 52 50 48 46 44 41 39 37 35 32 28 22 18
233 215 208 201 193 175 159 157 156 146 134 126 121 118 117 116 114 112 110 111 111 111 112 114 117 116 114 111 108 105 102 101 99 97 95 92 90 86 83 80 76 73 69 66 63 61 58 56 54 53 52 51 51 50 48 44 44 45 48 49 49 48 47 49 54 58 61 62 60 58 56 55 54 53 52 51 50 49 48 47 46 45 44 42 42
220 203 202 201 198 183 166 161 161 154 143 133 127 123 121 118 116 115 114 116 117 116 114 114 116 117 116 114 111 108 104 102 101 98 95 92 89 85 81 78 75 72 67 63 61 59 57 55 53 51 50 50 50 50 48 45 44 44 47 49 49 48 49 53 57 59 61 61 60 58 56 54 54 54 53 53 52 52 52 51 51 51 50 49 49
213 196 200 202 200 189 172 165 164 160 151 141 133 128 125 121 118 117 118 120 120 119 118 118 119 119 119 119 116 113 110 107 104 100 96 92 88 84 81 77 73 69 64 61 60 58 56 54 51 50 49 50 50 50 49 46 44 44 46 48 48 49 51 55 60 61 61 62 61 58 56 54 54 53 53 53 53 52 52 52 52 52 52 52 51
209 196 200 202 200 193 178 168 165 163 157 147 138 132 129 125 120 118 119 122 123 122 121 120 121 118 117 119 118 116 113 110 106 103 98 93 89 84 79 74 69 66 62 59 58 57 54 52 50 48 49 50 51 51 50 48 46 44 45 47 48 49 52 56 61 63 62 62 62 60 57 55 54 53 53 53 52 52 52 52 52 52 52 52 52
211 199 201 203 200 196 185 172 165 162 157 149 141 136 133 128 124 120 119 122 123 124 124 122 120 116 115 116 115 115 113 109 107 103 97 91 86 80 75 69 65 63 60 58 55 54 52 49 47 47 49 51 52 52 50 49 47 45 44 46 48 50 53 57 62 64 64 63 63 62 59 56 54 54 53 53 53 52 51 51 51 51 51 51 51
214 203 203 205 200 197 190 177 167 161 156 150 145 140 137 133 128 123 121 122 122 124 127 126 122 116 115 113 112 112 110 107 106 102 95 89 84 77 72 67 63 60 58 57 54 52 50 47 46 46 48 52 53 52 51 49 48 46 44 45 47 49 51 56 61 65 66 64 62 61 59 57 55 54 54 54 53 53 52 52 52 51 51 51 51
217 205 204 207 203 199 194 183 170 162 156 152 148 144 140 137 132 127 124 123 123 125 128 128 125 119 116 115 113 112 108 106 105 101 95 89 83 76 71 67 63 59 56 54 53 51 48 46 45 45 48 52 53 52 51 49 49 48 45 44 46 47 48 52 56 61 64 64 61 58 56 55 54 54 54 54 54 54 53 53 52 52 51 51 51
217 205 202 206 206 202 198 191 178 167 161 156 152 147 143 139 135 131 128 125 124 127 129 129 126 123 119 117 116 115 111 109 105 100 95 90 83 77 73 69 64 59 55 53 51 49 47 46 45 46 48 52 53 53 52 50 49 49 47 45 45 46 46 48 50 53 57 58 57 55 52 51 51 53 53 53 54 54 53 52 53 52 51 51 51
217 206 204 204 206 205 200 197 189 177 168 163 159 155 151 145 139 135 132 129 127 129 132 132 129 126 122 120 118 116 114 111 106 100 96 90 84 79 75 70 64 59 55 52 50 47 45 45 45 45 47 51 53 53 52 50 49 50 49 46 45 47 47 47 48 49 51 52 53 52 50 48 50 52 52 52 53 54 53 52 52 52 51 51 51
221 209 205 205 207 208 203 201 197 188 180 174 171 169 166 161 154 145 138 135 134 133 134 134 133 130 126 124 121 118 115 112 108 102 97 90 84 79 75 71 64 58 54 52 49 46 44 44 44 45 47 50 52 52 51 50 49 49 50 48 46 46 48 48 48 48 49 49 50 51 50 48 50 53 53 52 53 54 53 53 53 52 51 51 51
227 216 208 205 206 209 207 203 201 198 193 188 185 185 186 183 178 168 157 148 146 144 140 136 134 133 130 127 123 120 118 114 111 106 100 94 88 82 77 71 65 58 54 50 47 45 44 43 43 45 48 50 51 52 50 49 48 49 50 49 47 46 47 48 49 48 48 48 49 51 51 49 51 54 53 53 54 54 54 54 53 53 52 52 52
231 225 213 207 204 207 208 205 202 202 202 201 198 199 201 202 200 194 186 177 168 162 154 145 139 135 133 131 127 125 123 119 115 111 107 102 94 85 77 69 63 58 53 49 45 44 43 43 42 44 47 50 51 51 49 48 47 48 49 49 47 46 46 47 48 48 47 47 48 49 50 49 51 53 53 53 54 54 54 53 53 53 53 53 54
230 232 221 211 206 204 206 207 204 202 204 206 206 208 210 212 214 212 209 204 195 183 173 162 151 145 140 136 134 131 128 123 118 114 110 102 95 85 74 66 60 54 51 47 43 43 43 42 42 43 47 51 52 51 49 47 47 48 50 49 48 46 45 46 47 47 47 47 47 48 49 49 50 51 52 53 54 53 53 53 53 52 53 53 54
227 234 227 216 209 205 204 205 205 204 204 205 206 209 212 215 219 221 221 218 211 201 190 180 167 157 151 147 144 141 134 127 120 114 109 102 94 83 70 62 56 51 47 44 42 42 42 42 41 42 45 50 52 51 49 48 48 50 51 50 49 47 45 45 46 46 46 46 47 48 49 49 49 49 49 52 53 54 53 53 53 52 52 52 52
223 230 227 218 208 204 203 203 204 207 208 206 203 204 208 212 217 220 222 221 217 210 202 192 180 168 162 156 153 149 141 134 127 122 116 106 92 78 67 58 51 46 42 40 38 38 39 40 40 40 42 47 51 52 50 48 49 50 51 51 50 48 46 44 44 45 45 45 45 47 49 49 48 47 47 49 51 53 53 52 52 51 50 50 49
Height
10993 10990 10986 10982 10979 10977 10974 10971 10968 10967 10965 10963 10961 10960 10958 10956 10954 10953 10952 10951 10950 10948 10946 10944 10943 10942 10941 10939 10938 10937 10935 10934 10933 10932 10932 10931 10931 10931 10931 10930 10930 10930 10930 10930 10930 10930 10931 10931 10932 10932 10933 10934 10935 10936 10936 10937 10938 10939 10939 10939 10940 10940 10941 10942 10943 10943 10944 10944 10946 10946 10947 10948 10949 10949 10950 10951 10951 10952 10952 10952 10952 10952 10952 10952 10952
10993 10991 10988 10983 10979 10977 10974 10971 10969 10967 10964 10962 10959 10958 10956 10955 10954 10953 10952 10950 10949 10947 10945 10944 10943 10941 10940 10938 10937 10936 10935 10934 10933 10932 10932 10931 10930 10930 10930 10930 10930 10930 10931 10931 10931 10932 10932 10933 10933 10934 10935 10935 10936 10936 10937 10938 10939 10939 10940 10940 10941 10941 10942 10943 10943 10944 10945 10946 10947 10947 10948 10949 10949 10949 10949 10950 10951 10951 10952 10952 10952 10952 10952 10952 10952
10991 10989 10987 10984 10981 10978 10975 10972 10969 10966 10963 10961 10958 10957 10955 10954 10952 10951 10950 10949 10947 10946 10945 10944 10942 10940 10939 10938 10937 10936 10935 10934 10933 10932 10931 10930 10929 10929 10929 10930 10930 10931 10932 10932 10933 10933 10934 10934 10934 10935 10936 10937 10937 10938 10938 10939 10940 10941 10941 10942 10942 10942 10943 10944 10944 10945 10946 10947 10947 10948 10948 10949 10949 10950 10950 10950 10951 10951 10952 10952 10952 10952 10952 10952 10952
10991 10988 10986 10984 10981 10978 10975 10972 10970 10967 10964 10961 10959 10956 10954 10952 10950 10949 10948 10946 10945 10944 10943 10942 10941 10940 10939 10938 10937 10937 10936 10935 10934 10932 10931 10929 10928 10928 10929 10930 10931 10932 10933 10933 10934 10935 10935 10936 10936 10937 10937 10938 10939 10939 10940 10941 10941 10942 10942 10943 10943 10944 10944 10945 10946 10946 10947 10947 10948 10948 10948 10949 10950 10950 10950 10951 10951 10951 10951 10952 10952 10952 10952 10952 10952
10990 10988 10985 10983 10980 10978 10975 10973 10970 10968 10965 10962 10960 10957 10954 10952 10950 10948 10947 10945 10944 10943 10942 10941 10940 10940 10940 10939 10938 10938 10936 10935 10934 10933 10931 10930 10929 10929 10929 10930 10931 10933 10934 10935 10935 10936 10937 10937 10938 10938 10939 10940 10941 10941 10942 10943 10943 10943 10944 10944 10945 10945 10946 10946 10947 10947 10948 10948 10949 10949 10949 10949 10950 10951 10951 10951 10951 10951 10951 10951 10951 10952 10952 10952 10952
10990 10987 10985 10982 10979 10977 10975 10973 10971 10969 10966 10964 10961 10958 10956 10953 10951 10949 10948 10946 10945 10944 10942 10942 10941 10941 10941 10940 10940 10939 10938 10936 10935 10934 10933 10931 10930 10930 10931 10932 10933 10934 10935 10936 10937 10937 10938 10938 10939 10940 10941 10942 10942 10943 10944 10945 10945 10945 10946 10946 10947 10947 10947 10948 10948 10948 10948 10949 10949 10949 10950 10950 10951 10951 10951 10951 10951 10951 10951 10951 10951 10952 10952 10952 10952
10989 10987 10984 10982 10979 10977 10976 10974 10972 10969 10967 10965 10962 10959 10957 10955 10953 10951 10949 10948 10946 10945 10944 10944 10944 10943 10943 10942 10941 10940 10939 10938 10937 10936 10935 10934 10933 10933 10933 10934 10935 10936 10937 10938 10938 10939 10939 10940 10940 10941 10942 10943 10944 10945 10946 10946 10947 10947 10947 10948 10948 10948 10949 10949 10949 10949 10949 10949 10950 10950 10950 10951 10951 10951 10951 10951 10951 10951 10951 10951 10951 10952 10952 10951 10951
10990 10987 10984 10982 10980 10978 10976 10974 10972 10970 10968 10965 10962 10960 10958 10956 10954 10953 10951 10949 10948 10947 10947 10946 10946 10945 10944 10944 10943 10942 10941 10940 10939 10939 10938 10937 10937 10937 10937 10937 10938 10938 10939 10939 10940 10940 10940 10941 10942 10943 10944 10945 10946 10947 10947 10948 10948 10949 10949 10949 10949 10950 10950 10950 10950 10950 10950 10950 10951 10951 10951 10951 10951 10951 10951 10951 10951 10951 10951 10951 10951 10952 10951 10951 10950
10990 10988 10985 10983 10981 10979 10977 10975 10973 10971 10968 10966 10963 10961 10959 10957 10955 10953 10952 10950 10949 10948 10948 10947 10947 10947 10946 10946 10945 10944 10943 10942 10942 10941 10940 10940 10940 10939 10940 10940 10940 10940 10940 10941 10941 10941 10942 10942 10943 10944 10945 10946 10947 10948 10948 10949 10949 10949 10950 10950 10950 10951 10951 10951 10951 10951 10951 10951 10951 10951 10951 10951 10951 10951 10951 10951 10951 10951 10951 10951 10951 10951 10950 10949 10949
10990 10988 10986 10984 10981 10979 10977 10976 10974 10972 10969 10966 10964 10962 10960 10958 10956 10954 10952 10951 10950 10949 10949 10949 10948 10948 10948 10948 10947 10946 10946 10945 10945 10944 10943 10943 10942 10942 10942 10942 10942 10942 10942 10942 10942 10943 10943 10944 10945 10946 10946 10947 10949 10949 10950 10950 10951 10951 10950 10951 10951 10951 10951 10951 10951 10951 10951 10951 10951 10951 10951 10951 10951 10952 10952 10952 10952 10952 10951 10951 10951 10950 10949 10948 10948
10991 10989 10986 10984 10982 10980 10978 10977 10975 10973 10970 10968 10965 10963 10961 10959 10957 10955 10953 10952 10950 10950 10950 10950 10950 10951 10951 10950 10950 10949 10949 10948 10947 10947 10946 10945 10945 10944 10944 10944 10944 10944 10944 10944 10944 10945 10945 10946 10946 10947 10948 10949 10950 10951 10951 10952 10952 10952 10952 10952 10952 10952 10952 10952 10952 10952 10952 10952 10952 10952 10952 10951 10951 10952 10952 10951 10951 10951 10951 10950 10950 10949 10948 10947 10947
10991 10990 10987 10985 10983 10981 10979 10978 10976 10974 10972 10969 10967 10965 10962 10960 10958 10956 10954 10953 10952 10952 10952 10952 10953 10953 10953 10953 10952 10952 10951 10950 10949 10949 10948 10948 10947 10947 10946 10946 10946 10945 10945 10945 10945 10946 10946 10947 10948 10948 10949 10950 10951 10952 10952 10953 10953 10953 10953 10953 10953 10953 10953 10952 10952 10952 10952 10952 10952 10952 10952 10951 10951 10951 10951 10951 10951 10951 10950 10949 10948 10947 10947 10946 10945
10992 10990 10988 10986 10984 10982 10981 10980 10978 10976 10974 10972 10969 10967 10964 10962 10960 10958 10956 10955 10954 10954 10954 10955 10955 10955 10955 10955 10954 10954 10953 10952 10952 10951 10950 10949 10949 10948 10948 10948 10947 10947 10946 10946 10947 10947 10947 10948 10949 10949 10950 10951 10952 10953 10953 10954 10954 10955 10954 10954 10954 10953 10953 10953 10953 10952 10952 10952 10952 10952 10952 10951 10951 10951 10950 10950 10950 10949 10949 10948 10947 10946 10946 10945 10944
10993 10991 10989 10987 10985 10983 10982 10981 10980 10978 10976 10974 10972 10969 10966 10964 10962 10960 10959 10958 10957 10957 10957 10957 10956 10956 10956 10956 10956 10955 10955 10954 10954 10953 10952 10951 10950 10949 10949 10948 10948 10947 10947 10947 10948 10948 10948 10949 10949 10950 10951 10952 10952 10953 10954 10955 10955 10955 10955 10955 10954 10954 10954 10953 10953 10953 10952 10952 10952 10952 10951 10951 10951 10950 10950 10949 10949 10948 10947 10947 10946 10946 10945 10944 10943
10993 10991 10989 10987 10986 10984 10983 10982 10981 10980 10979 10977 10974 10972 10969 10966 10964 10963 10962 10960 10960 10959 10959 10959 10958 10958 10958 10957 10957 10957 10956 10956 10955 10955 10954 10952 10951 10950 10950 10949 10949 10948 10948 10948 10949 10949 10949 10949 10950 10951 10952 10952 10953 10953 10954 10955 10955 10956 10956 10955 10955 10954 10954 10954 10953 10953 10953 10952 10952 10952 10951 10951 10950 10950 10949 10949 10948 10947 10946 10946 10945 10945 10944 10943 10942
10995 10993 10990 10988 10987 10986 10985 10984 10983 10982 10981 10979 10977 10974 10972 10969 10968 10966 10965 10963 10962 10962 10961 10960 10960 10960 10959 10959 10959 10959 10958 10958 10957 10956 10955 10954 10953 10952 10951 10951 10950 10950 10949 10949 10950 10950 10950 10950 10950 10951 10952 10953 10953 10954 10954 10955 10955 10956 10956 10956 10955 10955 10955 10954 10954 10953 10953 10952 10952 10951 10951 10950 10950 10949 10948 10948 10947 10946 10945 10945 10944 10944 10943 10942 10941
10995 10993 10991 10989 10988 10987 10986 10985 10985 10984 10983 10982 10980 10978 10975 10973 10971 10970 10968 10967 10966 10965 10964 10963 10962 10962 10962 10962 10961 10961 10961 10961 10960 10958 10957 10956 10955 10954 10954 10953 10952 10951 10951 10951 10951 10951 10951 10951 10951 10952 10952 10953 10954 10954 10955 10955 10956 10956 10956 10956 10956 10955 10955 10954 10954 10953 10953 10952 10951 10950 10950 10949 10948 10948 10947 10947 10946 10945 10945 10944 10944 10943 10942 10941 10941
10995 10994 10992 10990 10989 10988 10987 10987 10987 10986 10985 10984 10983 10981 10979 10977 10975 10974 10972 10971 10970 10968 10967 10966 10965 10965 10965 10965 10964 10964 10964 10964 10963 10962 10961 10960 10959 10958 10957 10956 10955 10954 10953 10953 10953 10954 10953 10953 10953 10953 10954 10954 10954 10955 10956 10956 10957 10957 10957 10957 10957 10956 10955 10955 10954 10953 10953 10952 10950 10949 10948 10947 10947 10947 10946 10946 10945 10945 10944 10944 10943 10942 10942 10941 10940
10995 10993 10992 10990 10989 10988 10988 10988 10988 10987 10986 10986 10985 10984 10982 10980 10979 10978 10977 10976 10974 10973 10972 10970 10969 10969 10968 10968 10968 10968 10967 10967 10966 10965 10964 10963 10963 10962 10961 10960 10959 10958 10957 10956 10956 10956 10956 10955 10955 10955 10955 10955 10956 10956 10957 10958 10958 10958 10958 10958 10957 10957 10956 10955 10954 10954 10953 10952 10950 10949 10948 10947 10947 10946 10946 10945 10945 10944 10944 10943 10943 10942 10942 10941 10940
10995 10994 10992 10990 10990 10989 10989 10989 10989 10988 10987 10987 10987 10986 10985 10984 10982 10981 10981 10980 10979 10978 10976 10975 10974 10973 10972 10972 10972 10971 10971 10970 10969 10969 10968 10967 10966 10966 10965 10964 10963 10962 10961 10960 10959 10959 10958 10958 10958 10958 10958 10958 10958 10958 10959 10959 10959 10959 10959 10959 10958 10957 10957 10956 10955 10954 10953 10952 10951 10950 10949 10948 10947 10947 10946 10946 10945 10945 10944 10944 10943 10943 10942 10941 10941
10996 10994 10992 10991 10990 10990 10989 10989 10989 10989 10988 10988 10988 10988 10987 10987 10986 10985 10985 10984 10983 10982 10980 10979 10978 10977 10976 10976 10975 10975 10974 10973 10973 10972 10971 10970 10970 10969 10969 10968 10967 10966 10965 10964 10963 10963 10962 10961 10961 10961 10961 10960 10960 10960 10961 10961 10961 10961 10961 10960 10959 10959 10958 10957 10956 10955 10954 10953 10952 10951 10950 10949 10948 10947 10947 10946 10946 10946 10945 10945 10944 10944 10943 10942 10942
10997 10995 10993 10992 10991 10991 10990 10990 10990 10990 10990 10990 10990 10990 10989 10989 10989 10988 10988 10987 10986 10985 10984 10982 10981 10981 10980 10980 10979 10978 10977 10977 10976 10975 10975 10974 10973 10973 10973 10972 10972 10970 10969 10968 10967 10967 10966 10965 10965 10965 10964 10964 10964 10964 10964 10964 10964 10964 10963 10962 10961 10960 10960 10959 10958 10957 10956 10954 10953 10952 10951 10950 10949 10949 10948 10948 10948 10947 10947 10946 10945 10945 10944 10944 10944
10998 10995 10994 10993 10992 10992 10992 10992 10991 10991 10991 10991 10991 10991 10991 10991 10991 10991 10990 10990 10989 10988 10986 10985 10985 10984 10984 10983 10982 10981 10980 10980 10979 10978 10978 10977 10977 10976 10976 10976 10976 10975 10973 10972 10972 10971 10970 10970 10969 10969 10969 10969 10969 10968 10967 10967 10967 10967 10966 10965 10964 10963 10962 10961 10960 10959 10958 10957 10955 10954 10953 10952 10951 10951 10950 10950 10949 10949 10948 10948 10947 10947 10946 10946 10945
10998 10996 10994 10994 10993 10993 10993 10993 10993 10992 10992 10992 10992 10992 10993 10993 10993 10993 10992 10992 10991 10990 10989 10988 10988 10987 10986 10986 10985 10984 10984 10983 10982 10982 10981 10981 10981 10980 10980 10980 10979 10979 10977 10976 10975 10975 10975 10974 10973 10973 10973 10974 10973 10972 10972 10971 10970 10970 10969 10968 10967 10966 10965 10964 10962 10961 10960 10959 10958 10957 10956 10954 10953 10953 10952 10951 10951 10951 10950 10950 10949 10949 10948 10948 10947
10998 10996 10995 10995 10994 10994 10994 10994 10994 10993 10993 10993 10993 10993 10994 10994 10994 10994 10994 10994 10993 10993 10992 10991 10991 10990 10989 10989 10988 10988 10987 10987 10986 10985 10985 10985 10984 10984 10983 10983 10983 10982 10981 10980 10979 10979 10979 10978 10978 10977 10977 10977 10977 10976 10975 10974 10973 10973 10972 10971 10969 10968 10967 10966 10965 10963 10962 10961 10960 10959 10958 10957 10956 10955 10954 10953 10953 10952 10952 10951 10951 10950 10950 10949 10949
10999 10997 10996 10995 10995 10995 10995 10995 10995 10995 10995 10994 10994 10994 10995 10995 10995 10995 10995 10995 10995 10995 10994 10994 10993 10993 10992 10992 10991 10991 10990 10990 10989 10989 10989 10988 10988 10987 10986 10986 10986 10986 10985 10984 10983 10983 10983 10982 10982 10981 10980 10980 10980 10979 10978 10976 10975 10975 10974 10972 10971 10970 10969 10967 10966 10965 10964 10963 10962 10961 10960 10959 10958 10957 10956 10955 10954 10954 10953 10953 10952 10952 10951 10951 10950
10999 10998 10997 10996 10996 10996 10996 10997 10997 10997 10996 10996 10996 10996 10996 10996 10996 10996 10996 10996 10996 10997 10997 10996 10996 10995 10995 10995 10994 10994 10993 10993 10993 10992 10992 10991 10991 10990 10990 10989 10989 10989 10988 10987 10987 10986 10986 10986 10985 10984 10983 10982 10982 10981 10980 10977 10976 10975 10974 10973 10972 10971 10969 10967 10966 10965 10965 10964 10963 10962 10961 10960 10959 10959 10958 10957 10956 10955 10954 10954 10953 10952 10952 10951 10951
10999 10999 10998 10998 10998 10998 10998 10999 10999 10999 10998 10997 10997 10997 10997 10997 10997 10997 10997 10997 10998 10998 10998 10998 10998 10998 10997 10997 10997 10997 10996 10996 10996 10996 10995 10994 10994 10993 10993 10992 10992 10992 10991 10991 10990 10989 10989 10988 10988 10987 10985 10984 10983 10982 10981 10979 10977 10976 10975 10974 10973 10971 10969 10968 10967 10966 10965 10964 10963 10962 10962 10961 10960 10959 10958 10957 10957 10956 10955 10954 10953 10953 10952 10951 10951
11000 11000 11000 10999 10999 11000 11000 11001 11001 11001 11000 10999 10999 10998 10998 10998 10998 10998 10998 10998 10999 10999 10999 11000 11000 11000 10999 11000 11000 11000 11000 10999 10999 10999 10998 10998 10997 10996 10996 10995 10995 10995 10994 10993 10993 10992 10991 10991 10990 10989 10987 10986 10985 10983 10982 10980 10978 10977 10976 10975 10973 10972 10970 10969 10968 10966 10965 10964 10963 10963 10962 10961 10960 10959 10958 10957 10957 10956 10955 10954 10953 10953 10952 10952 10952
11002 11002 11002 11001 11001 11002 11002 11003 11003 11002 11001 11001 11000 11000 11000 11000 11000 11000 10999 11000 11000 11000 11001 11001 11002 11002 11002 11002 11002 11002 11002 11002 11002 11002 11001 11000 11000 10999 10999 10998 10998 10997 10996 10996 10996 10995 10994 10993 10992 10991 10990 10988 10987 10986 10984 10983 10981 10979 10977 10976 10975 10973 10972 10970 10969 10968 10966 10965 10964 10963 10962 10961 10960 10959 10958 10957 10957 10956 10955 10954 10953 10953 10953 10952 10952
11003 11003 11003 11003 11003 11003 11004 11005 11005 11004 11003 11003 11002 11002 11002 11002 11001 11001 11001 11001 11001 11002 11002 11003 11004 11004 11004 11004 11004 11004 11005 11004 11004 11004 11004 11003 11003 11002 11002 11001 11000 11000 10999 10998 10998 10997 10997 10996 10994 10993 10992 10991 10990 10988 10986 10985 10983 10981 10979 10978 10977 10976 10974 10973 10971 10970 10968 10967 10965 10964 10963 10961 10960 10959 10958 10957 10956 10955 10954 10954 10953 10953 10952 10952 10952
11004 11005 11005 11005 11005 11005 11006 11006 11007 11006 11005 11005 11004 11004 11004 11004 11004 11003 11003 11003 11003 11003 11004 11005 11005 11006 11006 11007 11007 11007 11007 11007 11006 11006 11006 11006 11005 11005 11004 11004 11003 11003 11002 11001 11001 11000 10999 10998 10997 10996 10995 10993 10992 10990 10989 10987 10985 10983 10982 10980 10979 10978 10977 10975 10973 10972 10970 10969 10967 10966 10964 10962 10961 10959 10958 10957 10956 10955 10954 10953 10952 10952 10951 10951 10951
11006 11006 11006 11006 11006 11006 11007 11008 11008 11008 11007 11006 11006 11006 11006 11006 11006 11005 11005 11005 11005 11005 11006 11006 11007 11008 11008 11009 11009 11009 11009 11009 11009 11009 11009 11008 11008 11007 11007 11006 11006 11005 11004 11004 11003 11003 11002 11000 10999 10998 10997 10996 10995 10993 10991 10990 10988 10985 10984 10983 10982 10980 10979 10977 10975 10974 10972 10970 10968 10967 10965 10963 10961 10960 10959 10957 10956 10955 10954 10953 10952 10951 10950 10950 10949
11007 11007 11008 11008 11008 11007 11008 11009 11010 11010 11009 11008 11008 11008 11008 11008 11008 11007 11007 11007 11007 11007 11008 11008 11009 11009 11010 11010 11011 11011 11011 11011 11011 11011 11011 11011 11010 11010 11009 11009 11009 11008 11007 11007 11006 11005 11004 11003 11002 11001 11000 10999 10997 10995 10993 10992 10990 10988 10987 10986 10984 10983 10981 10979 10977 10975 10973 10971 10969 10968 10966 10964 10962 10961 10959 10958 10956 10955 10953 10952 10951 10950 10949 10949 10948
11007 11008 11008 11009 11009 11008 11009 11010 11011 11011 11010 11010 11010 11010 11010 11010 11009 11009 11009 11009 11009 11009 11010 11010 11010 11011 11011 11012 11012 11013 11013 11013 11013 11013 11013 11013 11013 11012 11012 11012 11011 11011 11010 11009 11009 11007 11006 11006 11004 11003 11002 11001 10999 10997 10996 10994 10993 10991 10990 10988 10987 10985 10983 10981 10979 10976 10974 10972 10971 10969 10968 10965 10964 10962 10960 10958 10956 10955 10953 10952 10950 10949 10948 10947 10947
11008 11008 11009 11010 11010 11009 11009 11011 11012 11012 11012 11011 11011 11011 11011 11011 11011 11011 11011 11012 11012 11012 11012 11012 11012 11013 11013 11013 11014 11014 11014 11015 11015 11015 11015 11015 11015 11015 11014 11014 11013 11013 11012 11012 11011 11010 11009 11008 11006 11005 11004 11003 11002 11000 10999 10998 10996 10994 10992 10991 10989 10987 10985 10982 10980 10978 10976 10974 10973 10971 10969 10967 10966 10964 10962 10960 10958 10956 10954 10952 10951 10949 10948 10947 10946
11008 11008 11009 11010 11010 11010 11010 11011 11012 11013 11013 11013 11013 11013 11013 11013 11013 11013 11013 11014 11014 11014 11014 11013 11014 11015 11015 11015 11015 11015 11016 11016 11017 11017 11017 11017 11017 11017 11017 11016 11015 11015 11015 11014 11013 11011 11010 11009 11008 11007 11007 11006 11004 11003 11002 11001 10998 10996 10994 10993 10991 10988 10986 10984 10982 10980 10978 10976 10975 10973 10971 10970 10968 10966 10964 10962 10960 10958 10955 10953 10952 10950 10948 10947 10946
11007 11007 11008 11009 11010 11011 11010 11011 11013 11014 11014 11014 11014 11014 11014 11015 11015 11015 11015 11016 11016 11016 11016 11016 11016 11016 11017 11017 11017 11017 11017 11018 11018 11018 11019 11019 11019 11019 11019 11018 11018 11017 11017 11016 11014 11014 11012 11011 11011 11010 11009 11008 11007 11006 11004 11003 11000 10998 10997 10995 10993 10991 10989 10986 10984 10982 10980 10979 10977 10976 10974 10972 10971 10969 10967 10965 10962 10960 10957 10955 10953 10951 10949 10948 10946
11007 11007 11008 11009 11010 11011 11011 11011 11013 11014 11015 11015 11015 11015 11016 11016 11016 11016 11017 11017 11017 11017 11018 11018 11018 11018 11019 11019 11019 11019 11019 11020 11020 11020 11021 11021 11021 11021 11021 11021 11020 11020 11018 11018 11017 11016 11015 11014 11013 11012 11012 11011 11009 11008 11007 11005 11003 11001 10999 10997 10995 10993 10990 10988 10986 10985 10983 10981 10979 10978 10977 10975 10973 10971 10969 10967 10964 10962 10960 10958 10955 10953 10951 10950 10948
11006 11006 11007 11008 11010 11011 11011 11012 11013 11014 11015 11016 11016 11017 11017 11017 11017 11018 11018 11018 11019 11019 11019 11019 11020 11020 11020 11020 11021 11021 11021 11022 11022 11023 11023 11023 11024 11024 11024 11023 11022 11021 11020 11020 11019 11018 11017 11016 11015 11015 11014 11013 11012 11010 11009 11007 11005 11003 11001 10999 10998 10995 10993 10991 10989 10987 10985 10984 10982 10981 10980 10978 10976 10974 10971 10969 10967 10965 10963 10961 10958 10956 10954 10952 10951
11006 11006 11007 11008 11009 11011 11012 11012 11013 11015 11016 11017 11017 11018 11018 11018 11018 11019 11019 11019 11020 11020 11020 11021 11021 11021 11021 11022 11022 11023 11023 11023 11024 11024 11025 11025 11025 11025 11025 11024 11023 11023 11022 11022 11021 11020 11019 11018 11018 11017 11016 11015 11014 11012 11011 11009 11007 11005 11003 11001 11000 10998 10996 10994 10992 10990 10988 10987 10985 10984 10982 10980 10978 10976 10974 10971 10969 10968 10966 10964 10961 10959 10957 10955 10954
11005 11005 11006 11007 11009 11011 11012 11013 11014 11015 11016 11017 11018 11018 11019 11019 11020 11020 11020 11020 11021 11021 11022 11022 11022 11022 11023 11023 11024 11024 11024 11025 11025 11026 11026 11026 11026 11026 11026 11025 11025 11025 11024 11024 11023 11022 11021 11020 11020 11019 11018 11017 11015 11014 11012 11011 11009 11007 11005 11003 11001 11000 10998 10997 10995 10993 10991 10990 10988 10987 10985 10983 10981 10979 10977 10974 10972 10970 10969 10967 10964 10963 10961 10959 10958
11005 11005 11006 11007 11009 11010 11012 11013 11014 11015 11016 11017 11018 11019 11020 11020 11021 11021 11021 11021 11022 11023 11023 11023 11023 11024 11024 11025 11025 11025 11025 11026 11026 11027 11027 11027 11027 11027 11027 11026 11026 11026 11026 11025 11024 11024 11023 11022 11021 11021 11020 11019 11017 11016 11014 11012 11011 11009 11007 11005 11003 11001 11000 10999 10997 10996 10994 10992 10991 10989 10987 10986 10984 10982 10980 10977 10975 10973 10972 10970 10968 10966 10964 10963 10961
11004 11004 11005 11006 11008 11010 11012 11014 11014 11015 11016 11018 11019 11019 11020 11021 11022 11022 11022 11023 11023 11024 11024 11024 11025 11025 11025 11026 11026 11026 11027 11027 11027 11028 11028 11028 11028 11028 11028 11028 11028 11027 11027 11027 11026 11026 11025 11024 11023 11022 11021 11020 11019 11017 11016 11014 11013 11012 11010 11008 11005 11003 11002 11000 10999 10997 10996 10994 10993 10991 10990 10988 10986 10984 10982 10980 10979 10976 10974 10973 10971 10969 10967 10966 10965
11004 11003 11004 11005 11007 11009 11011 11013 11015 11015 11016 11017 11019 11020 11021 11022 11022 11023 11023 11024 11024 11025 11025 11025 11026 11026 11026 11027 11027 11027 11028 11028 11028 11028 11028 11029 11029 11029 11029 11029 11029 11029 11028 11028 11028 11027 11026 11025 11024 11023 11023 11022 11021 11019 11018 11017 11015 11014 11012 11010 11008 11006 11004 11002 11001 10999 10998 10996 10995 10993 10992 10991 10988 10986 10984 10983 10981 10978 10977 10975 10974 10972 10970 10969 10968
11003 11002 11003 11004 11006 11008 11010 11013 11014 11015 11016 11017 11018 11019 11021 11022 11023 11024 11024 11025 11025 11025 11026 11026 11026 11027 11027 11027 11028 11028 11029 11029 11029 11029 11029 11030 11030 11030 11030 11030 11030 11030 11030 11029 11029 11028 11027 11026 11026 11025 11024 11023 11022 11021 11020 11018 11017 11016 11014 11012 11010 11008 11006 11005 11003 11001 11000 10998 10997 10995 10994 10993 10990 10988 10987 10985 10983 10981 10980 10979 10977 10975 10974 10972 10970
11002 11002 11002 11003 11005 11007 11010 11012 11014 11015 11015 11016 11018 11019 11020 11022 11024 11025 11025 11025 11026 11026 11026 11027 11027 11027 11028 11028 11028 11029 11029 11029 11030 11030 11030 11030 11031 11031 11031 11031 11031 11031 11030 11030 11029 11029 11028 11027 11027 11026 11025 11024 11024 11023 11021 11020 11019 11018 11016 11014 11012 11010 11009 11007 11005 11004 11002 11001 10999 10998 10997 10995 10992 10990 10989 10987 10986 10984 10983 10982 10980 10978 10976 10975 10973
11002 11001 11001 11002 11004 11006 11008 11011 11013 11014 11015 11015 11016 11018 11020 11022 11023 11025 11025 11026 11026 11027 11027 11027 11027 11028 11028 11029 11029 11029 11030 11030 11030 11030 11031 11031 11031 11032 11032 11032 11032 11031 11031 11030 11030 11030 11029 11029 11028 11027 11027 11026 11025 11024 11023 11022 11021 11019 11017 11016 11014 11012 11011 11009 11007 11006 11004 11003 11002 11000 10999 10997 10994 10992 10992 10991 10989 10987 10986 10984 10982 10981 10979 10977 10976
11001 11001 11001 11001 11003 11004 11007 11009 11012 11013 11014 11014 11015 11017 11019 11021 11023 11024 11025 11026 11027 11027 11028 11028 11028 11028 11029 11029 11030 11030 11030 11030 11031 11031 11031 11032 11032 11032 11032 11032 11032 11032 11031 11031 11031 11030 11030 11030 11029 11028 11028 11027 11026 11025 11024 11023 11022 11021 11019 11018 11016 11015 11013 11011 11010 11008 11007 11005 11004 11003 11001 10998 10997 10996 10995 10993 10991 10989 10988 10986 10985 10984 10982 10981 10979
10999 11000 11000 11001 11002 11003 11005 11008 11010 11012 11012 11013 11014 11016 11018 11020 11022 11024 11025 11026 11027 11028 11028 11028 11028 11028 11029 11030 11030 11030 11031 11031 11031 11031 11032 11032 11032 11032 11032 11032 11032 11032 11032 11032 11031 11031 11031 11030 11030 11029 11028 11028 11027 11026 11025 11024 11023 11022 11021 11019 11018 11017 11015 11014 11012 11011 11009 11008 11007 11005 11003 11001 11000 10998 10997 10995 10993 10992 10991 10989 10988 10987 10985 10984 10983
10997 10998 10999 11000 11001 11003 11005 11007 11009 11010 11011 11012 11013 11015 11016 11018 11020 11022 11024 11026 11027 11028 11028 11028 11028 11029 11029 11030 11030 11031 11031 11031 11032 11032 11032 11032 11032 11032 11032 11032 11032 11032 11032 11032 11032 11032 11032 11031 11031 11030 11029 11029 11028 11027 11026 11025 11024 11023 11022 11021 11020 11018 11017 11016 11015 11013 11012 11011 11009 11007 11005 11004 11002 11001 10999 10997 10996 10995 10994 10993 10991 10989 10988 10986 10985